Regional Weather Roundup
Issued by NWS

Home | Current Version | Previous Version | Graphics & Text | Print | Product List | Glossary On
Versions: 1 2 3 4 5 6 7 8 9 10 11 12 13 14 15 16 17 18 19 20 21 22 23 24 25 26 27 28 29 30 31 32 33 34 35 36 37 38 39 40 41 42 43 44 45 46 47 48 49 50
000
ASUS43 KFSD 220002
RWRSD

WEATHER ROUNDUP FOR SOUTH DAKOTA
NATIONAL WEATHER SERVICE SIOUX FALLS SD
600 PM CST SAT JAN 21 2017

NOTE: "FAIR" INDICATES FEW OR NO CLOUDS BELOW 12,000 FEET WITH NO
SIGNIFICANT WEATHER AND/OR OBSTRUCTIONS TO VISIBILITY.


SDZ001>005-009-010-012>017-220100-
NORTHWEST AND NORTH CENTRAL SOUTH DAKOTA

CITY           SKY/WX    TMP DP  RH WIND       PRES   REMARKS
BUFFALO          N/A     32  26  78 NW7       29.44R WCI  26
FAITH            N/A     28  26  92 NW13      29.49R WCI  17
MOBRIDGE       CLOUDY    27  23  85 NW6       29.47R WCI  20
$$

SDZ012>016-024>037-041>051-057-063-072>074-220100-
SOUTHWEST AND SOUTH CENTRAL SOUTH DAKOTA

CITY           SKY/WX    TMP DP  RH WIND       PRES   REMARKS
RAPID CTY ARPT CLEAR     31  26  82 NW6       29.51R WCI  25
PIERRE         CLEAR     24  21  88 CALM      29.49R
CUSTER         CLOUDY    31  26  82 E6        29.47R WCI  25
ELLSWORTH AFB  CLEAR     36  28  75 N9        29.50R
PHILIP         CLEAR     33  30  88 W7        29.51R WCI  27
PINE RIDGE     CLEAR     30  26  85 CALM      29.50R
SPEARFISH      FAIR      32  25  74 SW5       29.51R WCI  27
WINNER         FAIR      39  31  72 NW9       29.49R
$$

SDZ004>011-016>023-039-040-220100-
NORTHEAST SOUTH DAKOTA

CITY           SKY/WX    TMP DP  RH WIND       PRES   REMARKS
ABERDEEN       CLOUDY    32  27  81 SW3       29.48R
WATERTOWN      CLOUDY    30  30 100 W6        29.45R WCI  24
BROOKINGS      CLOUDY    31  30  96 W9        29.46R WCI  23
SISSETON         N/A     34  34 100 CALM      29.47R
$$

SDZ017-020-022-023-036>040-048>070-220100-
SOUTHEAST SOUTH DAKOTA

CITY           SKY/WX    TMP DP  RH WIND       PRES   REMARKS
SIOUX FALLS    CLOUDY    32  29  88 NW13      29.48R WCI  22
HURON          CLOUDY    32  29  88 NW7       29.49R WCI  26
CHAMBERLAIN    CLEAR     33  31  94 NW7       29.49R WCI  26
MITCHELL       CLOUDY    33  30  88 W9        29.50R WCI  25
YANKTON        CLEAR     30  27  86 N6        29.49R WCI  24
$$

ABBREVIATIONS USED IN REMARKS
   TC - TEMPERATURE IN CELSIUS
  WCI - WIND CHILL INDEX
   HX - HEAT INDEX
  VSB - VISIBILITY





USA.gov is the U.S. government's official web portal to all federal, state and local government web resources and services.